DW1695 Weather Reports


Display with metric or nautical units.
time (UTC)temp
F
wind
direction
speed
MPH
gust
MPH
rain 1hr
in
rain 24hr
in
rain mn
in
humidity
%
barometer
mb
20180623212004 61 309 7.0 12.0 0.00 0.00 0.00 84 1023.3
20180623211504 61 300 10.0 14.0 0.00 0.00 0.00 83 1023.2
20180623211004 62 304 9.0 12.0 0.00 0.00 0.00 82 1023.2
20180623210503 61 323 9.0 13.0 0.00 0.00 0.00 82 1023.3
20180623210004 61 322 10.0 13.0 0.00 0.00 0.00 81 1023.3
20180623205504 61 318 10.0 13.0 0.00 0.00 0.00 82 1023.3
20180623205004 61 308 7.0 15.0 0.00 0.00 0.00 83 1023.3
20180623204503 62 319 9.0 14.0 0.00 0.00 0.00 80 1023.3
20180623204004 62 295 9.0 13.0 0.00 0.00 0.00 81 1023.3
20180623203504 62 318 9.0 14.0 0.00 0.00 0.00 80 1023.2
20180623203003 62 315 7.0 12.0 0.00 0.00 0.00 80 1023.2
20180623202504 61 330 10.0 13.0 0.00 0.00 0.00 80 1023.3
20180623202004 61 320 10.0 15.0 0.00 0.00 0.00 80 1023.2
20180623201504 61 320 9.0 15.0 0.00 0.00 0.00 81 1023.2
20180623201004 61 312 7.0 12.0 0.00 0.00 0.00 80 1023.2
20180623200504 61 319 10.0 13.0 0.00 0.00 0.00 79 1023.3
20180623200005 61 317 9.0 12.0 0.00 0.00 0.00 79 1023.2
20180623195503 61 317 8.0 13.0 0.00 0.00 0.00 78 1023.3
20180623195004 61 316 7.0 12.0 0.00 0.00 0.00 79 1023.2
20180623194504 60 313 7.0 12.0 0.00 0.00 0.00 78 1023.3
20180623194004 60 319 9.0 13.0 0.00 0.00 0.00 79 1023.3
20180623193503 61 312 9.0 12.0 0.00 0.00 0.00 78 1023.3
20180623193004 60 328 7.0 10.0 0.00 0.00 0.00 80 1023.2
20180623192503 61 318 7.0 12.0 0.00 0.00 0.00 79 1023.2
20180623192005 61 315 6.0 10.0 0.00 0.00 0.00 80 1023.1
20180623191503 60 314 9.0 14.0 0.00 0.00 0.00 79 1023.1
20180623191004 60 339 8.0 12.0 0.00 0.00 0.00 80 1023.1
20180623190508 60 320 9.0 13.0 0.00 0.00 0.00 80 1023.1
20180623190003 60 328 9.0 13.0 0.00 0.00 0.00 80 1023.1
20180623185504 60 345 9.0 13.0 0.00 0.00 0.00 80 1023.2
20180623185004 60 307 9.0 13.0 0.00 0.00 0.00 80 1023.2
20180623184503 60 316 9.0 12.0 0.00 0.00 0.00 81 1023.2
20180623184004 60 322 7.0 12.0 0.00 0.00 0.00 81 1023.2
20180623183504 60 325 6.0 9.0 0.00 0.00 0.00 81 1023.1
20180623183005 60 320 7.0 10.0 0.00 0.00 0.00 81 1023.1
20180623182504 59 319 7.0 12.0 0.00 0.00 0.00 81 1023.1
20180623182005 59 353 5.0 10.0 0.00 0.00 0.00 81 1023.1
20180623181504 59 324 5.0 12.0 0.00 0.00 0.00 80 1023.1
20180623181005 59 330 7.0 12.0 0.00 0.00 0.00 81 1023.1
20180623180504 59 316 8.0 12.0 0.00 0.00 0.00 80 1023.1
20180623180004 60 319 7.0 10.0 0.00 0.00 0.00 80 1023.2
20180623175504 59 318 7.0 12.0 0.00 0.00 0.00 80 1023.1
20180623175005 59 316 6.0 12.0 0.00 0.00 0.00 80 1023.1
20180623174503 59 313 6.0 12.0 0.00 0.00 0.00 81 1023.1
20180623174005 59 321 4.0 10.0 0.00 0.00 0.00 82 1023.1
20180623173504 59 315 5.0 9.0 0.00 0.00 0.00 82 1023.2
20180623173005 59 311 7.0 13.0 0.00 0.00 0.00 81 1023.1
20180623172504 59 330 6.0 10.0 0.00 0.00 0.00 82 1023.1
20180623172004 59 318 6.0 9.0 0.00 0.00 0.00 82 1023.0
20180623171504 59 326 5.0 12.0 0.00 0.00 0.00 83 1023.1
20180623171004 59 322 8.0 12.0 0.00 0.00 0.00 83 1023.0
20180623170505 58 319 5.0 9.0 0.00 0.00 0.00 83 1023.0
20180623170004 58 318 8.0 12.0 0.00 0.00 0.00 83 1023.1
20180623165504 58 311 7.0 13.0 0.00 0.00 0.00 84 1023.0
20180623165004 58 318 7.0 12.0 0.00 0.00 0.00 84 1023.0
20180623164504 58 347 7.0 12.0 0.00 0.00 0.00 85 1023.0
20180623164004 58 312 5.0 9.0 0.00 0.00 0.00 85 1022.9
20180623163504 58 313 7.0 12.0 0.00 0.00 0.00 85 1022.8
20180623163005 58 319 7.0 12.0 0.00 0.00 0.00 86 1022.8
20180623162504 58 324 8.0 13.0 0.00 0.00 0.00 85 1022.6
20180623162004 58 317 6.0 12.0 0.00 0.00 0.00 85 1022.6
20180623161504 58 325 6.0 10.0 0.00 0.00 0.00 85 1022.6
20180623161004 58 317 6.0 9.0 0.00 0.00 0.00 85 1022.7
20180623160504 58 318 8.0 12.0 0.00 0.00 0.00 85 1022.7
20180623160004 58 319 5.0 13.0 0.00 0.00 0.00 85 1022.7
20180623155504 58 325 6.0 12.0 0.00 0.00 0.00 85 1022.6
20180623155004 58 321 5.0 9.0 0.00 0.00 0.00 85 1022.6
20180623154504 58 331 3.0 8.0 0.00 0.00 0.00 86 1022.5
20180623154004 58 14 2.0 10.0 0.00 0.00 0.00 85 1022.5
20180623153503 58 316 5.0 10.0 0.00 0.00 0.00 85 1022.5
20180623153004 58 326 2.0 6.0 0.00 0.00 0.00 87 1022.4
20180623152504 58 40 0.0 3.0 0.00 0.00 0.00 89 1022.3
20180623152004 57 346 2.0 3.0 0.00 0.00 0.00 89 1022.4
20180623151504 57 41 1.0 3.0 0.00 0.00 0.00 89 1022.3
20180623151004 57 65 1.0 2.0 0.00 0.00 0.00 89 1022.2
20180623150504 57 40 2.0 3.0 0.00 0.00 0.00 89 1022.2
20180623150004 57 29 1.0 3.0 0.00 0.00 0.00 89 1022.2
20180623145504 57 28 0.0 2.0 0.00 0.00 0.00 88 1022.2
20180623145004 57 55 0.0 5.0 0.00 0.00 0.00 88 1022.2
20180623144504 57 27 2.0 10.0 0.00 0.00 0.00 88 1022.2
20180623144005 57 337 8.0 12.0 0.00 0.00 0.00 88 1022.2
20180623143504 57 339 6.0 12.0 0.00 0.00 0.00 90 1022.2
20180623143004 57 330 9.0 13.0 0.00 0.00 0.00 92 1022.2
20180623142504 56 319 7.0 12.0 0.00 0.00 0.00 95 1022.2
20180623142004 56 319 7.0 12.0 0.00 0.00 0.00 95 1022.2
20180623141504 55 316 6.0 12.0 0.00 0.00 0.00 95 1022.1
20180623141003 55 337 5.0 9.0 0.00 0.00 0.00 95 1022.0
20180623140504 55 319 7.0 12.0 0.00 0.00 0.00 96 1022.0
20180623140004 55 318 5.0 9.0 0.00 0.00 0.00 96 1022.0
20180623135504 54 324 5.0 9.0 0.00 0.00 0.00 96 1022.0
20180623135004 54 327 6.0 9.0 0.00 0.00 0.00 96 1021.8
20180623134504 54 320 6.0 8.0 0.00 0.00 0.00 96 1021.7
20180623134004 54 331 5.0 9.0 0.00 0.00 0.00 96 1021.7
20180623133503 55 318 6.0 12.0 0.00 0.00 0.00 96 1021.7
20180623133004 55 343 5.0 9.0 0.00 0.00 0.00 96 1021.6
20180623132504 55 358 1.0 5.0 0.00 0.00 0.00 96 1021.6
20180623132004 55 15 1.0 3.0 0.00 0.00 0.00 96 1021.6
20180623131504 55 37 1.0 3.0 0.00 0.00 0.00 96 1021.5
20180623131005 55 44 0.0 1.0 0.00 0.00 0.00 96 1021.5
20180623130504 55 30 0.0 3.0 0.00 0.00 0.00 96 1021.4
20180623130004 55 37 1.0 3.0 0.00 0.00 0.00 96 1021.4
20180623125504 55 36 1.0 3.0 0.00 0.00 0.00 96 1021.3
20180623124504 55 4 1.0 5.0 0.00 0.00 0.00 96 1021.3
20180623124004 55 37 0.0 3.0 0.00 0.00 0.00 96 1021.2
20180623123505 55 60 1.0 3.0 0.00 0.00 0.00 96 1021.2
20180623123004 55 0 0.0 2.0 0.00 0.00 0.00 96 1021.2
20180623122504 55 31 1.0 3.0 0.00 0.00 0.00 96 1021.2
20180623122004 56 46 1.0 6.0 0.00 0.00 0.00 96 1021.2
20180623121505 56 38 1.0 6.0 0.00 0.00 0.00 96 1021.2
20180623121004 56 14 2.0 7.0 0.00 0.00 0.00 95 1021.2
20180623120504 56 22 5.0 8.0 0.00 0.00 0.00 95 1021.2
20180623120004 56 6 3.0 7.0 0.00 0.00 0.00 95 1021.1
20180623115504 56 347 2.0 7.0 0.00 0.00 0.00 95 1021.1
20180623115003 56 37 2.0 5.0 0.00 0.00 0.00 95 1021.2
20180623114504 56 329 3.0 8.0 0.00 0.00 0.00 95 1021.2
20180623114004 57 353 6.0 12.0 0.00 0.00 0.00 95 1021.2
20180623113504 57 353 8.0 13.0 0.00 0.00 0.00 94 1021.1
20180623113005 57 340 9.0 18.0 0.00 0.00 0.00 94 1021.2
20180623112504 57 354 9.0 17.0 0.00 0.00 0.00 93 1021.1
20180623112004 57 335 9.0 15.0 0.00 0.00 0.00 94 1021.1
20180623111504 57 343 6.0 12.0 0.00 0.00 0.00 93 1021.1
20180623111005 57 5 3.0 8.0 0.00 0.00 0.00 93 1021.1
20180623110505 57 7 2.0 5.0 0.00 0.00 0.00 93 1021.2
20180623110006 57 16 2.0 5.0 0.00 0.00 0.00 93 1021.2
20180623105504 57 355 2.0 7.0 0.00 0.00 0.00 93 1021.3
20180623105004 57 6 3.0 7.0 0.00 0.00 0.00 93 1021.2
20180623104504 57 349 2.0 10.0 0.00 0.00 0.00 93 1021.3
20180623104004 57 358 2.0 7.0 0.00 0.00 0.00 93 1021.2
20180623103504 57 0 2.0 13.0 0.00 0.00 0.00 93 1021.2
20180623103004 57 323 3.0 10.0 0.00 0.00 0.00 94 1021.2
20180623102503 57 319 3.0 6.0 0.00 0.00 0.00 93 1021.2
20180623102004 57 328 3.0 3.0 0.00 0.00 0.00 93 1021.2
20180623101504 58 322 0.0 0.0 0.00 0.00 0.00 93 1021.2
20180623101004 58 11 1.0 3.0 0.00 0.00 0.00 93 1021.2
20180623100504 58 10 1.0 2.0 0.00 0.00 0.00 93 1021.2
20180623100004 58 26 1.0 3.0 0.00 0.00 0.00 92 1021.2
20180623095504 58 341 1.0 5.0 0.00 0.00 0.00 92 1021.2
20180623095004 58 345 5.0 9.0 0.00 0.00 0.00 92 1021.2
20180623094504 58 323 7.0 10.0 0.00 0.00 0.00 92 1021.1
20180623094004 58 323 6.0 12.0 0.00 0.00 0.00 93 1021.2
20180623093242 58 323 6.0 10.0 0.00 0.00 0.00 93 1021.1
20180623092743 58 314 5.0 12.0 0.00 0.00 0.00 92 1021.0
20180623092242 58 318 7.0 10.0 0.00 0.00 0.00 92 1021.0
20180623091749 58 311 6.0 9.0 0.00 0.00 0.00 92 1020.9
20180623091242 58 311 7.0 12.0 0.00 0.00 0.00 92 1021.0
20180623090742 59 313 7.0 10.0 0.00 0.00 0.00 92 1020.9
20180623090504 59 311 7.0 12.0 0.00 0.00 0.00 92 1021.0
20180623090004 59 314 8.0 12.0 0.00 0.00 0.00 92 1021.0
20180623085504 59 313 9.0 12.0 0.00 0.00 0.00 92 1021.1
20180623085004 59 312 6.0 9.0 0.00 0.00 0.00 92 1021.0
20180623084504 58 290 6.0 9.0 0.00 0.00 0.00 92 1021.0
20180623084004 58 312 6.0 10.0 0.00 0.00 0.00 92 1021.0
20180623083504 58 297 6.0 12.0 0.00 0.00 0.00 92 1021.0
20180623083004 58 311 7.0 12.0 0.00 0.00 0.00 93 1021.1
20180623082504 58 310 6.0 12.0 0.00 0.00 0.00 93 1021.0
20180623082004 58 311 6.0 10.0 0.00 0.00 0.00 93 1021.0
20180623081504 58 318 7.0 12.0 0.00 0.00 0.00 93 1020.9
20180623081004 58 305 7.0 12.0 0.00 0.00 0.00 93 1020.9
20180623080504 58 304 9.0 12.0 0.00 0.00 0.00 94 1020.9
20180623080004 58 307 7.0 12.0 0.00 0.00 0.00 94 1020.9
20180623075503 58 299 8.0 12.0 0.00 0.00 0.00 94 1021.0
20180623075003 58 301 8.0 12.0 0.00 0.00 0.00 94 1021.0
20180623074505 58 300 7.0 10.0 0.00 0.00 0.00 94 1020.9
20180623074004 58 319 7.0 12.0 0.00 0.00 0.00 94 1020.9
20180623073504 58 314 6.0 10.0 0.00 0.00 0.00 94 1020.9
20180623073004 58 310 7.0 12.0 0.00 0.00 0.00 94 1021.0
20180623072503 58 314 9.0 12.0 0.00 0.00 0.00 95 1021.0
20180623072004 58 304 7.0 12.0 0.00 0.00 0.00 95 1021.1
20180623071504 58 307 6.0 10.0 0.00 0.00 0.00 95 1021.1
20180623071004 57 286 1.0 3.0 0.00 0.00 0.00 95 1021.1
20180623070504 57 305 0.0 1.0 0.00 0.00 0.00 95 1021.1
20180623070003 57 300 1.0 3.0 0.00 0.00 0.00 95 1021.2
20180623065504 57 316 3.0 5.0 0.00 0.00 0.00 95 1021.1
20180623065004 57 298 4.0 8.0 0.00 0.00 0.00 94 1021.1
20180623064503 58 297 7.0 12.0 0.00 0.00 0.00 94 1021.2
20180623064005 58 298 7.0 12.0 0.00 0.00 0.00 94 1021.2
20180623063505 59 284 5.0 9.0 0.00 0.00 0.00 94 1021.3
20180623063004 58 288 6.0 8.0 0.00 0.00 0.00 94 1021.3
20180623062504 58 272 4.0 7.0 0.00 0.00 0.00 94 1021.3
20180623062004 58 269 5.0 9.0 0.00 0.00 0.00 94 1021.3
20180623061504 58 257 3.0 6.0 0.00 0.00 0.00 94 1021.3
20180623061004 58 260 3.0 9.0 0.00 0.00 0.00 94 1021.3
20180623060503 58 265 5.0 8.0 0.00 0.00 0.00 95 1021.4
20180623060003 58 267 3.0 8.0 0.00 0.00 0.00 95 1021.4
20180623055504 58 257 2.0 5.0 0.00 0.00 0.00 95 1021.5
20180623055004 58 261 4.0 5.0 0.00 0.00 0.00 94 1021.5
20180623054503 58 254 4.0 6.0 0.00 0.00 0.00 94 1021.6
20180623054004 58 266 3.0 6.0 0.00 0.00 0.00 95 1021.7
20180623053504 58 268 4.0 9.0 0.00 0.00 0.00 94 1021.7
20180623053004 58 269 4.0 8.0 0.00 0.00 0.00 94 1021.8
20180623052504 58 282 3.0 8.0 0.00 0.00 0.00 95 1021.8
20180623052004 58 269 5.0 7.0 0.00 0.00 0.00 94 1021.8
20180623051504 57 276 2.0 3.0 0.00 0.00 0.00 94 1021.8
20180623051004 57 276 4.0 7.0 0.00 0.00 0.00 94 1021.8
20180623050504 57 279 5.0 8.0 0.00 0.00 0.00 94 1021.8
20180623050004 58 284 4.0 7.0 0.00 0.00 0.00 94 1021.7
20180623045504 58 279 4.0 9.0 0.00 0.00 0.00 94 1021.7
20180623045004 58 282 5.0 7.0 0.00 0.00 0.00 94 1021.7
20180623044504 58 281 4.0 7.0 0.00 0.00 0.00 94 1021.7
20180623044004 58 279 5.0 7.0 0.00 0.00 0.00 94 1021.6
20180623043503 58 271 4.0 8.0 0.00 0.00 0.00 94 1021.5
20180623043005 58 276 6.0 9.0 0.00 0.00 0.00 93 1021.5
20180623042504 58 279 5.0 9.0 0.00 0.00 0.00 93 1021.5
20180623042004 58 273 5.0 10.0 0.00 0.00 0.00 92 1021.4
20180623041503 58 270 5.0 7.0 0.00 0.00 0.00 92 1021.4
20180623041005 59 275 6.0 10.0 0.00 0.00 0.00 91 1021.5
20180623040504 59 279 6.0 9.0 0.00 0.00 0.00 90 1021.5
20180623040004 59 275 5.0 10.0 0.00 0.00 0.00 90 1021.5
20180623035504 59 278 6.0 10.0 0.00 0.00 0.00 90 1021.5
20180623035004 59 293 5.0 8.0 0.00 0.00 0.00 90 1021.5
20180623034504 58 294 6.0 10.0 0.00 0.00 0.00 90 1021.5
20180623034004 59 281 5.0 9.0 0.00 0.00 0.00 91 1021.4
20180623033504 59 286 4.0 7.0 0.00 0.00 0.00 91 1021.4
20180623033004 59 299 6.0 8.0 0.00 0.00 0.00 90 1021.5
20180623032504 59 286 6.0 10.0 0.00 0.00 0.00 90 1021.6
20180623032004 59 294 4.0 8.0 0.00 0.00 0.00 90 1021.7
20180623031503 58 278 5.0 10.0 0.00 0.00 0.00 90 1021.8
20180623031003 58 289 6.0 10.0 0.00 0.00 0.00 90 1021.7
20180623030504 59 291 7.0 13.0 0.00 0.00 0.00 90 1021.8
20180623030004 59 292 6.0 12.0 0.00 0.00 0.00 89 1021.7
20180623025504 59 271 6.0 9.0 0.00 0.00 0.00 89 1021.7
20180623025005 59 291 6.0 10.0 0.00 0.00 0.00 89 1021.7
20180623024504 59 287 5.0 10.0 0.00 0.00 0.00 89 1021.7
20180623024005 59 294 5.0 10.0 0.00 0.00 0.00 89 1021.7
20180623023504 59 284 5.0 8.0 0.00 0.00 0.00 89 1021.7
20180623023004 59 280 5.0 8.0 0.00 0.00 0.00 90 1021.7
20180623022504 59 273 6.0 9.0 0.00 0.00 0.00 90 1021.8
20180623022004 59 289 3.0 9.0 0.00 0.00 0.00 91 1021.8
20180623021504 59 301 6.0 10.0 0.00 0.00 0.00 91 1021.8
20180623021004 59 278 7.0 10.0 0.00 0.00 0.00 91 1021.8
20180623020504 59 298 7.0 12.0 0.00 0.00 0.00 91 1021.8
20180623020004 59 282 7.0 12.0 0.00 0.00 0.00 90 1021.9
20180623015504 59 287 6.0 12.0 0.00 0.00 0.00 90 1021.8
20180623015004 59 281 8.0 12.0 0.00 0.00 0.00 90 1021.9
20180623014504 59 287 8.0 12.0 0.00 0.00 0.00 90 1021.9
20180623014004 59 282 10.0 13.0 0.00 0.00 0.00 90 1021.9
20180623013504 59 277 9.0 13.0 0.00 0.00 0.00 89 1021.9
20180623013004 60 286 9.0 13.0 0.00 0.00 0.00 88 1021.9
20180623012504 60 279 8.0 13.0 0.00 0.00 0.00 88 1021.9
20180623012005 60 275 10.0 14.0 0.00 0.00 0.00 87 1021.9
20180623011503 60 283 10.0 13.0 0.00 0.00 0.00 87 1022.0
20180623011005 61 278 9.0 13.0 0.00 0.00 0.00 86 1022.0
20180623010504 61 280 8.0 12.0 0.00 0.00 0.00 85 1022.0
20180623010004 61 279 9.0 12.0 0.00 0.00 0.00 86 1022.0
20180623005504 61 267 6.0 12.0 0.00 0.00 0.00 86 1022.1
20180623005004 61 282 7.0 12.0 0.00 0.00 0.00 86 1022.1
20180623004505 61 284 7.0 12.0 0.00 0.00 0.00 86 1022.1
20180623004004 61 280 6.0 12.0 0.00 0.00 0.00 87 1022.2
20180623003508 61 263 7.0 12.0 0.00 0.00 0.00 86 1022.2
20180623003004 61 261 7.0 13.0 0.00 0.00 0.00 84 1022.3
20180623002504 61 262 7.0 13.0 0.00 0.00 0.00 84 1022.3
20180623002004 62 272 8.0 12.0 0.00 0.00 0.00 83 1022.3
20180623001504 61 262 6.0 12.0 0.00 0.00 0.00 84 1022.4
20180623001004 61 267 6.0 12.0 0.00 0.00 0.00 84 1022.4
20180623000504 61 275 7.0 12.0 0.00 0.00 0.00 83 1022.4
20180623000003 61 262 6.0 12.0 0.00 0.00 0.00 84 1022.4
20180622235504 61 253 6.0 12.0 0.00 0.00 0.00 84 1022.4
20180622235004 61 265 5.0 8.0 0.00 0.00 0.00 84 1022.5
20180622234503 61 262 6.0 9.0 0.00 0.00 0.00 83 1022.5
20180622234004 61 263 6.0 10.0 0.00 0.00 0.00 83 1022.5
20180622233504 61 288 6.0 9.0 0.00 0.00 0.00 83 1022.5
20180622233004 61 256 6.0 12.0 0.00 0.00 0.00 82 1022.6
20180622232504 62 256 6.0 12.0 0.00 0.00 0.00 82 1022.6
20180622232004 61 265 7.0 10.0 0.00 0.00 0.00 81 1022.6
20180622231504 61 261 6.0 9.0 0.00 0.00 0.00 82 1022.6
20180622231004 61 270 6.0 10.0 0.00 0.00 0.00 83 1022.7
20180622230504 61 253 7.0 12.0 0.00 0.00 0.00 82 1022.7
20180622230004 62 252 5.0 9.0 0.00 0.00 0.00 82 1022.7
20180622225503 62 270 6.0 9.0 0.00 0.00 0.00 80 1022.7
20180622225004 62 268 5.0 9.0 0.00 0.00 0.00 80 1022.9
20180622224504 62 270 6.0 9.0 0.00 0.00 0.00 80 1022.9
20180622224003 62 271 6.0 10.0 0.00 0.00 0.00 80 1022.9
20180622223504 62 270 4.0 7.0 0.00 0.00 0.00 80 1023.0
20180622223004 61 273 5.0 8.0 0.00 0.00 0.00 81 1023.0
20180622222505 62 256 6.0 8.0 0.00 0.00 0.00 80 1023.0
20180622222004 62 245 3.0 8.0 0.00 0.00 0.00 80 1023.0
20180622221504 62 265 6.0 10.0 0.00 0.00 0.00 80 1023.0
20180622221004 62 256 5.0 9.0 0.00 0.00 0.00 82 1022.9
20180622220504 61 246 5.0 10.0 0.00 0.00 0.00 80 1023.0
20180622220004 61 254 5.0 8.0 0.00 0.00 0.00 80 1023.0
20180622215504 61 258 4.0 7.0 0.00 0.00 0.00 81 1023.0
20180622215004 61 260 5.0 8.0 0.00 0.00 0.00 80 1023.1
20180622214504 61 264 5.0 7.0 0.00 0.00 0.00 80 1023.2
20180622214004 61 255 5.0 10.0 0.00 0.00 0.00 82 1023.2
20180622213504 61 262 6.0 10.0 0.00 0.00 0.00 82 1023.2
20180622213004 61 268 6.0 9.0 0.00 0.00 0.00 81 1023.3
20180622212504 60 259 6.0 12.0 0.00 0.00 0.00 82 1023.3